Volver al catálogo

STARLINK-32713

ActivoComunicacionesVLEO
NORAD 62487·PAYLOAD·🇺🇸 United States

Lanzado Jan 6, 2025 desde Cape Canaveral Space Force Station

Loading…

Próximos Pases (próximas 24 horas)

TLE

ActualizadoSource: CelesTrak SupGP

Época: Sep 15, 2026, 03:06 UTC

1 62487C 25003A   26258.12965278  .00024966  00000+0  90416-3 0  2587
2 62487  42.9999 299.1877 0001556 263.1951  79.8590 15.27570134    12

Sigue STARLINK-32713 en tiempo real con AllMySat

Download on the App Store